Showing default

HULIANWANG DIGUI-36, 64957

Orbit data source: Space-Track

HULIANWANG DIGUI-36, 64957 is a payload satellite owned by Zhongguo Xingwang (CN) in LEO that was launched on Sun, 27 Jul 2025 UTC via a CHANG ZHENG 6A launch vehicle from the Taiyaun Space Center, China (TSC). Payload-class satellites include a variety of spacecraft equipped with specific instruments for various scientific and technological missions. These include communications satellites like Starlink; space stations such as the ISS; scientific satellites like the Hubble; Earth observation satellites from companies like Planet Labs, Umbra, and HawkEye 360; GPS; miniature CubeSats for education and research; and military/defense satellites.

Loading next visibility...
Identifier
64957, 2025-159B
Orbit
LEO
Country
Flag of CNCN / PRC
Related business
Manufacturer
CAST
Mission
Operational Civil Communications
Bus & Motor
XINGWANG C, Unknown motor
Mass
~700 kg wet, ~700 kg dry
Launch date (UTC)
2025-07-27 (11 months ago)
Launch vehicle
CHANG ZHENG 6A
Launch site
Taiyaun Space Center, China (TSC)
Object type
Payload
Rocket body
Debris
Shape & HBR
Box + 2 Pan, 2.6 m
Radar Cross Section
5.935 m², Large (>1 m²)

Expand to show TLE details & history
Last TLE update: 10 hours ago

TLE from 10 hours ago
0 HULIANWANG DIGUI-36
1 64957U 25159B   26171.42047152  .00000053  00000-0  88558-4 0  9991
2 64957  86.4967 281.3973 0001726  92.6513 267.4819 13.24407240 43559
Epoch: 2026-06-20T10:05Z
TLE epoch observation values (Epoch: 2026-06-20T10:05:28.739Z)
Latitude
0.00002°
Longitude
-138.60779°
Altitude
1,170.884 km
Speed
7.268 km/s
True Right ascension
18h 45m 35s
True Declination
0° 00' 00"
Sunlit
Object was in full shadow at epoch
Visualization orbit readout
Latitude
Unknown
Longitude
Unknown
Altitude
Unknown
Speed
Unknown
Apparent Right ascension
Unknown
Apparent Declination
Unknown
Sunlit
N/A
Visualization observer readout
Local Sidereal Time
07:23:03
Azimuth
Unknown
Elevation
Unknown
Doppler factor
Unknown
Orbital elements
Apogee altitude
1,166.355 km
Perigee altitude
1,163.751 km
Semi-major axis
7,543.19 km
Eccentricity
0.00017
Inclination
86.4967°
RAAN
281.3973°
Arg. of periapsis
92.6513°
True anomaly
267.46214°
Mean anomaly
267.4819°
Eccentric anomaly
267.47202°
Mean motion
3.31292 °/min
Orbital period
108.67 mins
BSTAR
0.000088558
Loading maneuver chart data...
Computing Atmospheric mass density...
Loading historical data...
Loading historical data...
Loading historical data...
Loading historical data...
Loading historical data...
Loading historical data...
Loading historical data...

Documentation

Showing up to 5 results
|